Weather History for Point Salines, Grenada

Change the Weather History Date:

Friday, November 8, 2013

  Actual Average Record
Temperature  
Mean Temperature 80 °F -  
Max Temperature 86 °F 84 °F 91 °F (2012)
Min Temperature 75 °F 75 °F 75 °F (1996)
Cooling Degree Days 16    
Growing Degree Days 30 (Base 50)    
Moisture  
Dew Point 76 °F    
Average Humidity 84    
Maximum Humidity 100    
Minimum Humidity 69    
Precipitation  
Precipitation 0.39 in - - ()
Sea Level Pressure  
Sea Level Pressure 29.89 in    
Wind  
Wind Speed 11 mph ()    
Max Wind Speed 34 mph    
Max Gust Speed 37 mph    
Visibility 7.2 miles    
Events Rain    
Averages and records for this station are not official NWS values.
T = Trace of Precipitation, MM = Missing Value Source: Averaged Metar Reports

Daily Weather History Graph

Daily Weather History Graph

Search for Another Location

Airport:

Trip Planner

Search our weather history database for the weather conditions in past years. The results will help you decide how hot, cold, wet, or windy it might be!

Date:

Astronomy

Nov. 08, 2013 Rise Set
Actual Time 6:01 AM AST 5:39 PM AST
Civil Twilight 5:39 AM AST 6:01 PM AST
Nautical Twilight 5:14 AM AST 6:27 PM AST
Astronomical Twilight 4:49 AM AST 6:52 PM AST
Moon 10:53 AM AST (11/8) 10:52 PM AST (11/8)
Length of Visible Light 12h 21m
Length of Day
11h 37m
Waxing Crescent, 32% of the Moon is Illuminated
Nov 8
Waxing Crescent
Nov 10
First Quarter
Nov 17
Full
Nov 25
Last Quarter
Dec 2
New

Hourly Weather History & Observations

Time (AST) Temp. Heat Index Dew Point Humidity Pressure Visibility Wind Dir Wind Speed Gust Speed Precip Events Conditions
12:00 AM 80.6 °F 87.1 °F 77.0 °F 89% 29.89 in 6.2 mi ESE 8.1 mph - N/A   Scattered Clouds
1:00 AM 80.6 °F 87.1 °F 77.0 °F 89% 29.86 in 6.2 mi East 11.5 mph - N/A   Mostly Cloudy
2:00 AM 81 °F - 77 °F 85% 29.86 in 11 mi ESE 11.5 mph - -   Widespread Dust
2:00 AM 80.6 °F 87.1 °F 77.0 °F 89% 29.86 in 6.2 mi ESE 11.5 mph - N/A   Mostly Cloudy
3:00 AM 82.4 °F 90.9 °F 77.0 °F 84% 29.83 in 6.2 mi ESE 15.0 mph - N/A   Mostly Cloudy
4:00 AM 80.6 °F 87.1 °F 77.0 °F 89% 29.86 in 6.2 mi ESE 12.7 mph - N/A   Mostly Cloudy
5:00 AM 81 °F - 76 °F 82% 29.86 in 11 mi ESE 12.7 mph - -   Widespread Dust
5:00 AM 80.6 °F 87.1 °F 77.0 °F 89% 29.86 in 6.2 mi ESE 12.7 mph - N/A   Mostly Cloudy
6:00 AM 80.6 °F 87.1 °F 77.0 °F 89% 29.89 in 6.2 mi ESE 11.5 mph - N/A   Scattered Clouds
7:00 AM 82.4 °F 90.9 °F 77.0 °F 84% 29.89 in 6.2 mi East 11.5 mph - N/A   Mostly Cloudy
8:00 AM 85 °F - 77 °F 72% 29.93 in 11 mi East 12.7 mph - -   Scattered Clouds
8:00 AM 84.2 °F 94.1 °F 77.0 °F 79% 29.92 in 6.2 mi East 12.7 mph - N/A   Scattered Clouds
9:00 AM 86.0 °F 96.9 °F 77.0 °F 74% 29.95 in 6.2 mi SSE 26.5 mph - N/A   Scattered Clouds
9:15 AM 77.0 °F - 77.0 °F 100% 29.98 in 1.2 mi SSE 34.5 mph - N/A Rain Rain Showers
9:39 AM 77.0 °F - 77.0 °F 100% 29.98 in 5.6 mi ESE 5.8 mph - N/A Rain Light Rain Showers
10:00 AM 75.2 °F - 73.4 °F 94% 29.95 in 6.2 mi Calm Calm - N/A Rain Light Rain Showers
11:00 AM 80 °F - 77 °F 89% 29.94 in 11 mi SE 5.8 mph - -   Widespread Dust
11:00 AM 80.6 °F 87.1 °F 77.0 °F 89% 29.92 in 6.2 mi SE 5.8 mph - N/A   Mostly Cloudy
12:00 PM 84.2 °F 96.1 °F 78.8 °F 84% 29.89 in 6.2 mi SE 11.5 mph - N/A   Scattered Clouds
1:00 PM 86.0 °F 96.9 °F 77.0 °F 74% 29.86 in 6.2 mi SE 13.8 mph - N/A   Partly Cloudy
2:00 PM 85 °F - 76 °F 69% 29.86 in 16 mi ESE 11.5 mph - -   Scattered Clouds
2:00 PM 86.0 °F 96.9 °F 77.0 °F 74% 29.86 in 6.2 mi ESE 11.5 mph - N/A   Scattered Clouds
3:00 PM 86.0 °F 96.9 °F 77.0 °F 74% 29.83 in 6.2 mi SE 17.3 mph - N/A   Scattered Clouds
4:00 PM 84.2 °F 94.1 °F 77.0 °F 79% 29.83 in 6.2 mi ESE 13.8 mph - N/A   Scattered Clouds
5:00 PM 81 °F - 76 °F 80% 29.86 in 6 mi ESE 20.7 mph - - Rain Light Rain Showers
5:00 PM 80.6 °F 86.2 °F 75.2 °F 84% 29.86 in 6.2 mi ESE 20.7 mph 36.8 mph N/A Rain Rain Showers
6:00 PM 77.0 °F - 75.2 °F 94% 29.86 in 6.2 mi ENE 6.9 mph - N/A   Scattered Clouds
7:00 PM 78.8 °F - 77.0 °F 94% 29.86 in 6.2 mi East 13.8 mph - N/A   Scattered Clouds
8:00 PM 79 °F - 74 °F 80% 29.89 in 12 mi East 11.5 mph - -   Widespread Dust
8:00 PM 78.8 °F - 73.4 °F 83% 29.89 in 6.2 mi East 11.5 mph - N/A   Scattered Clouds
9:00 PM 80.6 °F 86.2 °F 75.2 °F 84% 29.89 in 6.2 mi East 15.0 mph - N/A   Partly Cloudy
10:00 PM 80.6 °F 87.1 °F 77.0 °F 89% 29.92 in 6.2 mi East 15.0 mph - N/A   Scattered Clouds
11:00 PM 81 °F - 76 °F 80% 29.90 in 12 mi East 15.0 mph - -   Widespread Dust
11:00 PM 80.6 °F 86.2 °F 75.2 °F 84% 29.89 in 6.2 mi East 15.0 mph - N/A   Partly Cloudy